| time (UTC) | temp F | wind direction | speed knots | gust knots | rain 1hr in | rain 24hr in | rain mn in | humidity % | barometer mb |
| 20260505012137 | 50 | 0 | 0.0 | 0.0 | 0.00 | 0.02 | 0.03 | 79 | 1006.5 |
| 20260505012105 | 50 | 0 | 0.0 | 0.0 | 0.00 | 0.02 | 0.03 | 79 | 1006.5 |
| 20260505011740 | 50 | 0 | 0.0 | 0.0 | 0.00 | 0.03 | 0.03 | 79 | 1006.4 |
| 20260505011234 | 50 | 0 | 0.0 | 0.0 | 0.00 | 0.02 | 0.03 | 79 | 1006.3 |
| 20260505011005 | 50 | 0 | 0.0 | 0.0 | 0.00 | 0.02 | 0.03 | 79 | 1006.3 |
| 20260505010840 | 50 | 0 | 0.0 | 0.0 | 0.00 | 0.03 | 0.03 | 79 | 1006.3 |
| 20260505010333 | 50 | 0 | 0.0 | 0.0 | 0.00 | 0.02 | 0.03 | 79 | 1006.2 |
| 20260505005940 | 50 | 0 | 0.0 | 0.0 | 0.00 | 0.03 | 0.03 | 78 | 1006.2 |
| 20260505005904 | 50 | 0 | 0.0 | 0.0 | 0.00 | 0.02 | 0.03 | 78 | 1006.2 |
| 20260505005434 | 50 | 0 | 0.0 | 0.0 | 0.00 | 0.02 | 0.03 | 78 | 1006.1 |
| 20260505005040 | 51 | 0 | 0.0 | 0.0 | 0.00 | 0.03 | 0.03 | 77 | 1006.1 |
| 20260505004804 | 51 | 0 | 0.0 | 0.0 | 0.00 | 0.02 | 0.03 | 77 | 1006.1 |
| 20260505004533 | 51 | 0 | 0.0 | 0.0 | 0.00 | 0.02 | 0.03 | 77 | 1006.1 |
| 20260505004140 | 51 | 0 | 0.0 | 0.0 | 0.00 | 0.03 | 0.03 | 77 | 1006.0 |
| 20260505003704 | 51 | 0 | 0.0 | 0.0 | 0.00 | 0.02 | 0.03 | 77 | 1005.8 |
| 20260505003634 | 52 | 0 | 0.0 | 0.0 | 0.00 | 0.02 | 0.03 | 77 | 1005.8 |
| 20260505002734 | 52 | 0 | 0.0 | 0.0 | 0.00 | 0.02 | 0.03 | 75 | 1005.7 |
| 20260505002604 | 52 | 0 | 0.0 | 0.0 | 0.00 | 0.02 | 0.03 | 75 | 1005.7 |
| 20260505002339 | 52 | 0 | 0.0 | 0.0 | 0.00 | 0.03 | 0.03 | 74 | 1005.5 |
| 20260505001834 | 53 | 0 | 0.0 | 0.0 | 0.00 | 0.02 | 0.03 | 74 | 1005.5 |
| 20260505001504 | 53 | 0 | 0.0 | 0.0 | 0.00 | 0.02 | 0.03 | 73 | 1005.4 |
| 20260505000933 | 53 | 0 | 0.0 | 0.0 | 0.00 | 0.02 | 0.03 | 72 | 1005.3 |
| 20260505000539 | 53 | 0 | 0.0 | 0.0 | 0.00 | 0.03 | 0.03 | 72 | 1005.3 |
| 20260505000405 | 54 | 0 | 0.0 | 0.0 | 0.00 | 0.02 | 0.03 | 72 | 1005.3 |
| 20260505000032 | 54 | 0 | 0.0 | 0.0 | 0.00 | 0.02 | 0.03 | 72 | 1005.3 |
| 20260504235639 | 54 | 0 | 0.0 | 0.0 | 0.00 | 0.03 | 0.03 | 71 | 1005.3 |
| 20260504235305 | 55 | 0 | 0.0 | 0.0 | 0.00 | 0.02 | 0.03 | 70 | 1005.2 |
| 20260504235133 | 55 | 0 | 0.0 | 0.0 | 0.00 | 0.02 | 0.03 | 70 | 1005.2 |
| 20260504234739 | 55 | 0 | 0.0 | 0.0 | 0.00 | 0.03 | 0.03 | 70 | 1005.2 |
| 20260504234235 | 56 | 0 | 0.0 | 0.0 | 0.00 | 0.02 | 0.03 | 69 | 1005.1 |
| 20260504234204 | 56 | 0 | 0.0 | 0.0 | 0.00 | 0.02 | 0.03 | 69 | 1005.1 |
| 20260504233839 | 56 | 0 | 0.0 | 0.0 | 0.00 | 0.03 | 0.03 | 69 | 1005.0 |
| 20260504233332 | 56 | 0 | 0.0 | 0.0 | 0.00 | 0.02 | 0.03 | 67 | 1004.9 |
| 20260504233105 | 57 | 0 | 0.0 | 0.0 | 0.00 | 0.02 | 0.03 | 67 | 1004.9 |
| 20260504232434 | 58 | 171 | 0.0 | 1.7 | 0.00 | 0.02 | 0.03 | 65 | 1004.8 |
| 20260504232004 | 58 | 171 | 0.0 | 1.7 | 0.00 | 0.02 | 0.03 | 64 | 1004.8 |
| 20260504231533 | 59 | 172 | 0.0 | 1.7 | 0.00 | 0.02 | 0.03 | 63 | 1004.8 |
| 20260504231139 | 60 | 168 | 0.0 | 1.7 | 0.00 | 0.03 | 0.03 | 62 | 1004.8 |
| 20260504230905 | 60 | 166 | 0.0 | 1.7 | 0.00 | 0.02 | 0.03 | 60 | 1004.8 |
| 20260504230633 | 60 | 166 | 0.0 | 3.5 | 0.00 | 0.02 | 0.03 | 60 | 1004.8 |
| 20260504230239 | 60 | 175 | 0.9 | 4.3 | 0.00 | 0.03 | 0.03 | 61 | 1004.8 |
| 20260504225804 | 60 | 174 | 0.9 | 4.3 | 0.00 | 0.02 | 0.03 | 59 | 1004.7 |
| 20260504225733 | 60 | 173 | 0.9 | 4.3 | 0.00 | 0.02 | 0.03 | 59 | 1004.7 |
| 20260504224834 | 61 | 170 | 0.9 | 5.2 | 0.00 | 0.02 | 0.03 | 58 | 1004.6 |
| 20260504224704 | 61 | 178 | 0.9 | 5.2 | 0.00 | 0.02 | 0.03 | 58 | 1004.7 |
| 20260504223933 | 61 | 219 | 0.0 | 3.5 | 0.00 | 0.02 | 0.03 | 58 | 1004.6 |
| 20260504223605 | 61 | 230 | 0.0 | 1.7 | 0.00 | 0.02 | 0.03 | 60 | 1004.6 |
| 20260504223539 | 61 | 228 | 0.0 | 1.7 | 0.00 | 0.03 | 0.03 | 60 | 1004.6 |
| 20260504223032 | 61 | 171 | 0.9 | 4.3 | 0.00 | 0.02 | 0.03 | 60 | 1004.6 |
| 20260504222639 | 61 | 178 | 0.9 | 4.3 | 0.00 | 0.03 | 0.03 | 58 | 1004.6 |
| 20260504222504 | 61 | 191 | 0.9 | 4.3 | 0.00 | 0.02 | 0.03 | 59 | 1004.5 |
| 20260504222133 | 61 | 118 | 0.9 | 4.3 | 0.00 | 0.02 | 0.03 | 60 | 1004.5 |
| 20260504221405 | 61 | 127 | 0.9 | 4.3 | 0.00 | 0.02 | 0.03 | 60 | 1004.6 |
| 20260504221233 | 61 | 133 | 0.9 | 3.5 | 0.00 | 0.02 | 0.03 | 58 | 1004.6 |
| 20260504220839 | 61 | 186 | 0.9 | 5.2 | 0.00 | 0.03 | 0.03 | 59 | 1004.5 |
| 20260504220336 | 61 | 182 | 1.7 | 5.2 | 0.00 | 0.02 | 0.03 | 59 | 1004.6 |
| 20260504220305 | 61 | 182 | 1.7 | 5.2 | 0.00 | 0.02 | 0.03 | 59 | 1004.6 |
| 20260504215939 | 61 | 184 | 1.7 | 4.3 | 0.00 | 0.03 | 0.03 | 58 | 1004.5 |
| 20260504215432 | 61 | 184 | 1.7 | 6.1 | 0.00 | 0.02 | 0.03 | 59 | 1004.6 |
| 20260504215204 | 61 | 190 | 1.7 | 6.1 | 0.00 | 0.02 | 0.03 | 59 | 1004.6 |
| 20260504215039 | 61 | 185 | 1.7 | 7.8 | 0.00 | 0.03 | 0.03 | 58 | 1004.6 |
| 20260504214533 | 61 | 188 | 2.6 | 7.8 | 0.00 | 0.02 | 0.03 | 59 | 1004.6 |
| 20260504214139 | 61 | 187 | 2.6 | 7.8 | 0.00 | 0.03 | 0.03 | 58 | 1004.7 |
| 20260504214104 | 61 | 189 | 2.6 | 7.8 | 0.00 | 0.02 | 0.03 | 58 | 1004.7 |
| 20260504213633 | 61 | 201 | 1.7 | 7.8 | 0.00 | 0.02 | 0.03 | 58 | 1004.6 |
| 20260504213005 | 61 | 207 | 1.7 | 6.1 | 0.00 | 0.02 | 0.03 | 58 | 1004.5 |
| 20260504212734 | 61 | 197 | 1.7 | 7.8 | 0.00 | 0.02 | 0.03 | 58 | 1004.5 |
| 20260504212339 | 61 | 188 | 1.7 | 7.8 | 0.00 | 0.03 | 0.03 | 60 | 1004.6 |
| 20260504211904 | 62 | 178 | 0.9 | 7.8 | 0.00 | 0.02 | 0.03 | 58 | 1004.5 |
| 20260504211833 | 62 | 179 | 0.9 | 4.3 | 0.00 | 0.02 | 0.03 | 58 | 1004.5 |
| 20260504211439 | 62 | 192 | 1.7 | 6.1 | 0.00 | 0.03 | 0.03 | 57 | 1004.4 |
| 20260504210931 | 62 | 198 | 1.7 | 6.1 | 0.00 | 0.02 | 0.03 | 57 | 1004.4 |
| 20260504210804 | 62 | 200 | 1.7 | 6.1 | 0.00 | 0.02 | 0.03 | 57 | 1004.4 |
| 20260504210538 | 62 | 200 | 1.7 | 6.1 | 0.00 | 0.03 | 0.03 | 59 | 1004.3 |
| 20260504210115 | 62 | 196 | 1.7 | 7.8 | 0.00 | 0.02 | 0.03 | 59 | 1004.4 |
| 20260504210032 | 62 | 196 | 1.7 | 7.8 | 0.00 | 0.02 | 0.03 | 59 | 1004.4 |
| 20260504205705 | 62 | 198 | 1.7 | 7.8 | 0.00 | 0.02 | 0.03 | 58 | 1004.2 |
| 20260504205638 | 62 | 199 | 1.7 | 7.8 | 0.00 | 0.03 | 0.03 | 58 | 1004.2 |
| 20260504205134 | 63 | 141 | 0.0 | 7.8 | 0.00 | 0.02 | 0.03 | 58 | 1004.3 |
| 20260504204603 | 62 | 172 | 1.7 | 7.0 | 0.00 | 0.02 | 0.03 | 59 | 1004.2 |
| 20260504204232 | 62 | 172 | 1.7 | 7.0 | 0.00 | 0.02 | 0.03 | 60 | 1004.2 |
| 20260504203838 | 62 | 166 | 0.9 | 7.0 | 0.00 | 0.03 | 0.03 | 62 | 1004.3 |
| 20260504203503 | 62 | 190 | 0.0 | 4.3 | 0.00 | 0.02 | 0.03 | 62 | 1004.3 |
| 20260504203332 | 62 | 190 | 0.0 | 4.3 | 0.00 | 0.02 | 0.03 | 62 | 1004.4 |
| 20260504202938 | 62 | 205 | 0.0 | 1.7 | 0.00 | 0.03 | 0.03 | 62 | 1004.4 |
| 20260504202434 | 62 | 159 | 0.0 | 0.9 | 0.00 | 0.02 | 0.03 | 62 | 1004.3 |
| 20260504202403 | 62 | 159 | 0.0 | 0.9 | 0.00 | 0.02 | 0.03 | 62 | 1004.3 |
| 20260504202038 | 62 | 159 | 0.0 | 0.9 | 0.00 | 0.03 | 0.03 | 62 | 1004.3 |
| 20260504201304 | 62 | 199 | 1.7 | 8.7 | 0.00 | 0.02 | 0.03 | 60 | 1004.4 |
| 20260504201138 | 62 | 199 | 1.7 | 8.7 | 0.00 | 0.03 | 0.03 | 60 | 1004.3 |
| 20260504200631 | 62 | 217 | 1.7 | 8.7 | 0.00 | 0.02 | 0.03 | 61 | 1004.2 |
| 20260504200238 | 62 | 189 | 2.6 | 7.0 | 0.00 | 0.03 | 0.03 | 61 | 1004.2 |
| 20260504200204 | 62 | 188 | 2.6 | 7.0 | 0.00 | 0.02 | 0.03 | 62 | 1004.2 |
| 20260504195733 | 62 | 181 | 2.6 | 7.8 | 0.00 | 0.02 | 0.03 | 62 | 1004.0 |
| 20260504195338 | 62 | 177 | 2.6 | 8.7 | 0.00 | 0.03 | 0.03 | 63 | 1004.1 |
| 20260504195103 | 62 | 186 | 1.7 | 11.3 | 0.00 | 0.02 | 0.03 | 64 | 1004.2 |
| 20260504194833 | 62 | 190 | 1.7 | 11.3 | 0.00 | 0.02 | 0.03 | 64 | 1004.2 |
| 20260504194438 | 62 | 185 | 1.7 | 11.3 | 0.00 | 0.03 | 0.03 | 65 | 1004.1 |
| 20260504194003 | 61 | 176 | 1.7 | 10.4 | 0.00 | 0.02 | 0.03 | 68 | 1004.2 |
| 20260504193932 | 61 | 189 | 1.7 | 10.4 | 0.00 | 0.02 | 0.03 | 66 | 1004.2 |
| 20260504193538 | 61 | 199 | 2.6 | 10.4 | 0.00 | 0.03 | 0.03 | 66 | 1004.2 |
| 20260504193032 | 60 | 216 | 2.6 | 8.7 | 0.00 | 0.02 | 0.03 | 69 | 1004.3 |
| 20260504192904 | 60 | 218 | 2.6 | 6.1 | 0.00 | 0.02 | 0.03 | 70 | 1004.3 |
| 20260504192638 | 60 | 215 | 1.7 | 8.7 | 0.00 | 0.03 | 0.03 | 70 | 1004.3 |
| 20260504192131 | 59 | 204 | 1.7 | 8.7 | 0.00 | 0.02 | 0.03 | 71 | 1004.4 |
| 20260504191803 | 59 | 172 | 1.7 | 6.1 | 0.00 | 0.02 | 0.03 | 72 | 1004.5 |
| 20260504191233 | 60 | 188 | 1.7 | 9.6 | 0.00 | 0.02 | 0.03 | 72 | 1004.5 |
| 20260504190838 | 59 | 199 | 1.7 | 9.6 | 0.00 | 0.03 | 0.03 | 73 | 1004.5 |
| 20260504190703 | 59 | 205 | 2.6 | 9.6 | 0.00 | 0.02 | 0.03 | 74 | 1004.4 |
| 20260504190333 | 58 | 196 | 2.6 | 9.6 | 0.00 | 0.02 | 0.03 | 74 | 1004.4 |
| 20260504185938 | 58 | 189 | 1.7 | 7.8 | 0.00 | 0.03 | 0.03 | 76 | 1004.4 |
| 20260504185603 | 58 | 188 | 1.7 | 6.1 | 0.00 | 0.02 | 0.03 | 78 | 1004.4 |
| 20260504185432 | 57 | 192 | 0.9 | 6.1 | 0.00 | 0.02 | 0.03 | 79 | 1004.4 |
| 20260504185038 | 56 | 193 | 1.7 | 5.2 | 0.00 | 0.03 | 0.03 | 80 | 1004.4 |
| 20260504184537 | 55 | 193 | 1.7 | 6.1 | 0.00 | 0.02 | 0.03 | 82 | 1004.4 |
| 20260504184502 | 55 | 193 | 1.7 | 6.1 | 0.00 | 0.02 | 0.03 | 82 | 1004.4 |
| 20260504184138 | 54 | 193 | 1.7 | 6.1 | 0.01 | 0.03 | 0.03 | 82 | 1004.4 |
| 20260504183631 | 54 | 198 | 0.9 | 4.3 | 0.00 | 0.02 | 0.03 | 83 | 1004.6 |
| 20260504183403 | 54 | 198 | 0.9 | 4.3 | 0.00 | 0.02 | 0.03 | 83 | 1004.6 |
| 20260504183238 | 53 | 202 | 1.7 | 5.2 | 0.01 | 0.04 | 0.03 | 84 | 1004.7 |
| 20260504182731 | 53 | 214 | 0.9 | 5.2 | 0.01 | 0.03 | 0.03 | 85 | 1004.8 |
| 20260504182338 | 53 | 212 | 0.9 | 5.2 | 0.02 | 0.04 | 0.03 | 85 | 1004.8 |
| 20260504182304 | 53 | 206 | 0.9 | 5.2 | 0.01 | 0.03 | 0.03 | 86 | 1004.8 |
| 20260504181831 | 52 | 182 | 0.9 | 4.3 | 0.01 | 0.03 | 0.03 | 87 | 1004.9 |
| 20260504181438 | 52 | 177 | 0.0 | 4.3 | 0.02 | 0.04 | 0.03 | 88 | 1004.9 |
| 20260504181202 | 52 | 171 | 0.0 | 1.7 | 0.02 | 0.05 | 0.03 | 88 | 1004.9 |
| 20260504180932 | 51 | 0 | 0.0 | 0.0 | 0.02 | 0.05 | 0.03 | 87 | 1004.9 |
| 20260504180538 | 51 | 167 | 0.0 | 4.3 | 0.03 | 0.05 | 0.03 | 87 | 1004.9 |
| 20260504180103 | 51 | 174 | 0.9 | 4.3 | 0.02 | 0.05 | 0.03 | 86 | 1004.9 |
| 20260504180032 | 51 | 174 | 0.9 | 4.3 | 0.02 | 0.05 | 0.03 | 86 | 1004.8 |
| 20260504175638 | 51 | 176 | 0.9 | 4.3 | 0.03 | 0.06 | 0.03 | 86 | 1004.9 |
| 20260504175132 | 51 | 174 | 0.9 | 4.3 | 0.02 | 0.05 | 0.03 | 85 | 1005.0 |
| 20260504175004 | 51 | 174 | 0.9 | 4.3 | 0.02 | 0.05 | 0.03 | 85 | 1005.0 |
| 20260504174738 | 52 | 172 | 0.9 | 4.3 | 0.02 | 0.05 | 0.02 | 85 | 1005.0 |
| 20260504174231 | 52 | 185 | 0.9 | 3.5 | 0.01 | 0.05 | 0.02 | 84 | 1005.1 |
| 20260504173903 | 52 | 161 | 0.9 | 4.3 | 0.01 | 0.05 | 0.02 | 83 | 1005.0 |
| 20260504173837 | 52 | 161 | 0.9 | 4.3 | 0.02 | 0.06 | 0.02 | 83 | 1005.0 |
| 20260504173332 | 53 | 146 | 0.9 | 4.3 | 0.01 | 0.05 | 0.02 | 82 | 1005.1 |
| 20260504172803 | 53 | 172 | 0.9 | 3.5 | 0.01 | 0.05 | 0.02 | 81 | 1005.1 |
| 20260504172431 | 54 | 170 | 0.9 | 3.5 | 0.00 | 0.05 | 0.01 | 79 | 1005.1 |
| 20260504172037 | 54 | 173 | 1.7 | 7.8 | 0.01 | 0.06 | 0.01 | 78 | 1005.0 |
| 20260504171703 | 54 | 178 | 1.7 | 7.8 | 0.00 | 0.05 | 0.01 | 76 | 1005.0 |
| 20260504171532 | 55 | 183 | 1.7 | 7.8 | 0.00 | 0.07 | 0.01 | 74 | 1005.0 |
| 20260504171137 | 55 | 183 | 1.7 | 7.8 | 0.00 | 0.06 | 0.00 | 72 | 1005.0 |
| 20260504170635 | 56 | 183 | 0.9 | 4.3 | 0.00 | 0.05 | 0.00 | 69 | 1004.9 |
| 20260504170603 | 56 | 183 | 0.9 | 4.3 | 0.00 | 0.05 | 0.00 | 69 | 1004.9 |
| 20260504170237 | 56 | 191 | 0.9 | 4.3 | 0.00 | 0.06 | 0.00 | 68 | 1004.7 |
| 20260504160331 | 56 | 226 | 1.7 | 7.0 | 0.00 | 0.10 | 0.00 | 64 | 1003.9 |
| 20260504150931 | 56 | 221 | 0.9 | 4.3 | 0.00 | 0.15 | 0.00 | 59 | 1004.8 |
| 20260504150537 | 56 | 222 | 0.9 | 4.3 | 0.00 | 0.15 | 0.00 | 58 | 1004.8 |
| 20260504150501 | 56 | 218 | 0.9 | 4.3 | 0.00 | 0.15 | 0.00 | 60 | 1004.8 |
| 20260504141136 | 51 | 213 | 0.9 | 4.3 | 0.00 | 0.21 | 0.00 | 62 | 1005.7 |
| 20260504141002 | 51 | 216 | 0.9 | 4.3 | 0.00 | 0.20 | 0.00 | 62 | 1005.8 |
| 20260504140631 | 51 | 223 | 0.9 | 4.3 | 0.00 | 0.20 | 0.00 | 61 | 1005.8 |
| 20260504140236 | 51 | 216 | 0.9 | 5.2 | 0.00 | 0.22 | 0.00 | 61 | 1005.8 |
| 20260504130402 | 49 | 221 | 0.9 | 4.3 | 0.00 | 0.30 | 0.00 | 59 | 1006.3 |
| 20260504130330 | 50 | 224 | 0.9 | 4.3 | 0.00 | 0.30 | 0.00 | 59 | 1006.4 |
| 20260504110632 | 37 | 202 | 0.0 | 1.7 | 0.00 | 0.37 | 0.00 | 84 | 1006.4 |
| 20260504110300 | 37 | 201 | 0.0 | 1.7 | 0.00 | 0.37 | 0.00 | 85 | 1006.5 |
| 20260504110236 | 37 | 201 | 0.0 | 1.7 | 0.00 | 0.38 | 0.00 | 85 | 1006.5 |
| 20260504100330 | 33 | 0 | 0.0 | 0.0 | 0.00 | 0.41 | 0.00 | 86 | 1006.2 |
| 20260504081759 | 32 | 0 | 0.0 | 0.0 | 0.00 | 0.52 | 0.00 | 88 | 1005.7 |
| 20260504081528 | 32 | 0 | 0.0 | 0.0 | 0.00 | 0.52 | 0.00 | 88 | 1005.7 |
| 20260504081135 | 32 | 0 | 0.0 | 0.0 | 0.00 | 0.53 | 0.00 | 88 | 1005.7 |
| 20260504080700 | 32 | 0 | 0.0 | 0.0 | 0.00 | 0.52 | 0.00 | 88 | 1005.7 |
| 20260504080235 | 32 | 0 | 0.0 | 0.0 | 0.00 | 0.53 | 0.00 | 88 | 1005.7 |
| 20260504070328 | 32 | 0 | 0.0 | 0.0 | 0.00 | 0.52 | 0.00 | 87 | 1005.6 |
| 20260504050629 | 33 | 0 | 0.0 | 0.0 | 0.00 | 0.54 | 0.00 | 85 | 1005.2 |
| 20260504050234 | 34 | 0 | 0.0 | 0.0 | 0.00 | 0.54 | 0.00 | 85 | 1005.2 |
| 20260504050000 | 34 | 0 | 0.0 | 0.0 | 0.00 | 0.54 | 0.00 | 85 | 1005.2 |
| 20260504045727 | 34 | 0 | 0.0 | 0.0 | 0.00 | 0.54 | 0.00 | 85 | 1005.2 |
| 20260504044900 | 34 | 0 | 0.0 | 0.0 | 0.00 | 0.54 | 0.00 | 85 | 1005.1 |
| 20260504044830 | 34 | 0 | 0.0 | 0.0 | 0.00 | 0.54 | 0.00 | 85 | 1005.1 |
| 20260504044434 | 34 | 0 | 0.0 | 0.0 | 0.00 | 0.54 | 0.00 | 85 | 1005.1 |
| 20260504043927 | 35 | 0 | 0.0 | 0.0 | 0.00 | 0.54 | 0.00 | 84 | 1005.0 |
| 20260504043800 | 35 | 0 | 0.0 | 0.0 | 0.00 | 0.54 | 0.00 | 84 | 1005.1 |
| 20260504043534 | 35 | 0 | 0.0 | 0.0 | 0.00 | 0.54 | 0.00 | 84 | 1005.1 |
| 20260504043027 | 35 | 0 | 0.0 | 0.0 | 0.00 | 0.54 | 0.00 | 84 | 1005.0 |
| 20260504042659 | 35 | 0 | 0.0 | 0.0 | 0.00 | 0.54 | 0.00 | 84 | 1005.0 |
| 20260504042127 | 35 | 0 | 0.0 | 0.0 | 0.00 | 0.54 | 0.00 | 84 | 1005.0 |
| 20260504041734 | 35 | 0 | 0.0 | 0.0 | 0.00 | 0.54 | 0.00 | 84 | 1005.0 |
| 20260504041559 | 35 | 0 | 0.0 | 0.0 | 0.00 | 0.54 | 0.00 | 83 | 1005.0 |
| 20260504040834 | 36 | 194 | 0.0 | 2.6 | 0.00 | 0.54 | 0.00 | 83 | 1005.1 |
| 20260504040458 | 36 | 194 | 0.0 | 2.6 | 0.00 | 0.54 | 0.00 | 83 | 1005.0 |
| 20260504040329 | 36 | 199 | 0.0 | 0.9 | 0.00 | 0.54 | 0.00 | 83 | 1005.0 |
| 20260504035430 | 36 | 201 | 0.0 | 0.9 | 0.00 | 0.54 | 0.53 | 83 | 1004.8 |
| 20260504035358 | 36 | 201 | 0.0 | 0.9 | 0.00 | 0.54 | 0.53 | 83 | 1004.8 |
| 20260504035033 | 36 | 215 | 0.0 | 0.9 | 0.00 | 0.54 | 0.54 | 83 | 1004.8 |
| 20260504034528 | 36 | 211 | 0.0 | 0.9 | 0.00 | 0.54 | 0.53 | 83 | 1004.7 |
| 20260504034258 | 36 | 199 | 0.0 | 0.9 | 0.00 | 0.54 | 0.53 | 83 | 1004.7 |
| 20260504034134 | 36 | 198 | 0.0 | 0.9 | 0.00 | 0.54 | 0.54 | 84 | 1004.7 |
| 20260504033700 | 36 | 171 | 0.0 | 0.9 | 0.00 | 0.54 | 0.53 | 84 | 1004.6 |
| 20260504033628 | 36 | 171 | 0.0 | 0.9 | 0.00 | 0.54 | 0.53 | 84 | 1004.6 |
| 20260504033233 | 36 | 178 | 0.0 | 1.7 | 0.00 | 0.54 | 0.54 | 84 | 1004.6 |
| 20260504033159 | 36 | 178 | 0.0 | 1.7 | 0.00 | 0.54 | 0.53 | 84 | 1004.6 |
| 20260504032727 | 36 | 181 | 0.0 | 1.7 | 0.00 | 0.54 | 0.53 | 84 | 1004.6 |
| 20260504032333 | 36 | 192 | 0.0 | 1.7 | 0.00 | 0.54 | 0.54 | 84 | 1004.4 |
| 20260504032059 | 36 | 183 | 0.0 | 0.9 | 0.00 | 0.54 | 0.53 | 84 | 1004.4 |
| 20260504031828 | 36 | 183 | 0.0 | 0.9 | 0.00 | 0.54 | 0.53 | 84 | 1004.5 |
| 20260504031433 | 35 | 182 | 0.0 | 0.9 | 0.00 | 0.54 | 0.54 | 84 | 1004.5 |
| 20260504030959 | 35 | 182 | 0.0 | 0.9 | 0.00 | 0.54 | 0.53 | 84 | 1004.4 |
| 20260504030926 | 35 | 182 | 0.0 | 0.9 | 0.00 | 0.54 | 0.53 | 84 | 1004.4 |
| 20260504030533 | 35 | 0 | 0.0 | 0.0 | 0.00 | 0.54 | 0.54 | 84 | 1004.4 |
| 20260504030112 | 35 | 181 | 0.0 | 0.9 | 0.00 | 0.54 | 0.53 | 84 | 1004.4 |
| 20260504030026 | 35 | 181 | 0.0 | 0.9 | 0.00 | 0.54 | 0.53 | 84 | 1004.4 |
| 20260504025859 | 35 | 181 | 0.0 | 0.9 | 0.00 | 0.54 | 0.53 | 84 | 1004.4 |
| 20260504025633 | 35 | 181 | 0.0 | 0.9 | 0.00 | 0.54 | 0.54 | 84 | 1004.4 |
| 20260504025130 | 35 | 0 | 0.0 | 0.0 | 0.00 | 0.54 | 0.53 | 85 | 1004.3 |
| 20260504024758 | 35 | 0 | 0.0 | 0.0 | 0.00 | 0.54 | 0.53 | 85 | 1004.3 |
| 20260504024733 | 35 | 0 | 0.0 | 0.0 | 0.00 | 0.54 | 0.54 | 85 | 1004.3 |
| 20260504024229 | 35 | 0 | 0.0 | 0.0 | 0.00 | 0.54 | 0.53 | 85 | 1004.3 |
| 20260504023833 | 34 | 0 | 0.0 | 0.0 | 0.00 | 0.54 | 0.54 | 85 | 1004.3 |
| 20260504023659 | 35 | 0 | 0.0 | 0.0 | 0.00 | 0.54 | 0.53 | 85 | 1004.3 |
| 20260504023328 | 35 | 0 | 0.0 | 0.0 | 0.00 | 0.54 | 0.53 | 85 | 1004.3 |
| 20260504022933 | 35 | 0 | 0.0 | 0.0 | 0.00 | 0.54 | 0.54 | 84 | 1004.3 |
| 20260504022558 | 35 | 0 | 0.0 | 0.0 | 0.00 | 0.54 | 0.53 | 84 | 1004.4 |
| 20260504022504 | 35 | 0 | 0.0 | 0.0 | 0.00 | 0.54 | 0.53 | 84 | 1004.4 |
| 20260504022427 | 35 | 0 | 0.0 | 0.0 | 0.00 | 0.54 | 0.53 | 84 | 1004.4 |
| 20260504021531 | 35 | 0 | 0.0 | 0.0 | 0.00 | 0.54 | 0.53 | 83 | 1004.3 |
| 20260504021459 | 35 | 0 | 0.0 | 0.0 | 0.00 | 0.54 | 0.53 | 83 | 1004.3 |
| 20260504020628 | 36 | 0 | 0.0 | 0.0 | 0.00 | 0.54 | 0.53 | 83 | 1004.3 |
| 20260504020358 | 36 | 0 | 0.0 | 0.0 | 0.00 | 0.54 | 0.53 | 83 | 1004.3 |
| 20260504020233 | 36 | 0 | 0.0 | 0.0 | 0.00 | 0.54 | 0.54 | 83 | 1004.3 |
| 20260504015727 | 36 | 0 | 0.0 | 0.0 | 0.00 | 0.54 | 0.53 | 83 | 1004.3 |
| 20260504015333 | 36 | 0 | 0.0 | 0.0 | 0.00 | 0.54 | 0.54 | 82 | 1004.2 |
| 20260504015259 | 36 | 0 | 0.0 | 0.0 | 0.00 | 0.54 | 0.53 | 82 | 1004.2 |
| 20260504014827 | 36 | 0 | 0.0 | 0.0 | 0.00 | 0.54 | 0.53 | 82 | 1004.1 |
| 20260504014433 | 36 | 0 | 0.0 | 0.0 | 0.00 | 0.54 | 0.54 | 81 | 1004.2 |
| 20260504014158 | 37 | 0 | 0.0 | 0.0 | 0.00 | 0.54 | 0.53 | 82 | 1004.1 |
| 20260504013926 | 37 | 0 | 0.0 | 0.0 | 0.00 | 0.54 | 0.53 | 81 | 1004.1 |
| 20260504013533 | 37 | 0 | 0.0 | 0.0 | 0.00 | 0.54 | 0.54 | 81 | 1004.0 |
| 20260504013059 | 37 | 0 | 0.0 | 0.0 | 0.00 | 0.54 | 0.53 | 81 | 1004.1 |
| 20260504013026 | 37 | 0 | 0.0 | 0.0 | 0.00 | 0.54 | 0.53 | 81 | 1004.1 |